FW0577 Weather Reports


Display with metric or nautical units.
time (UTC)temp
F
wind
direction
speed
MPH
gust
MPH
rain 1hr
in
rain 24hr
in
rain mn
in
humidity
%
barometer
mb
20260903020115 74 304 0.0 2.0 0.00 0.00 0.00 35 1011.4
20260903015833 75 304 0.0 0.0 0.00 0.00 0.00 33 1011.7
20260903015103 75 304 0.0 0.0 0.00 0.00 0.00 32 1011.7
20260903014603 75 304 0.0 0.0 0.00 0.00 0.00 31 1011.7
20260903013603 76 304 0.0 0.0 0.00 0.00 0.00 32 1011.5
20260903013037 76 304 0.0 0.0 0.00 0.00 0.00 33 1011.7
20260903012531 77 304 0.0 0.0 0.00 0.00 0.00 35 1011.8
20260903012031 77 304 0.0 5.0 0.00 0.00 0.00 36 1011.7
20260903011530 77 304 0.0 5.0 0.00 0.00 0.00 36 1011.9
20260903011030 77 9 0.0 0.0 0.00 0.00 0.00 37 1011.7
20260903010030 78 221 0.0 0.0 0.00 0.00 0.00 37 1011.8
20260903005530 78 221 0.0 0.0 0.00 0.00 0.00 37 1011.7
20260903005032 78 221 0.0 1.0 0.00 0.00 0.00 38 1011.7
20260903002738 79 185 0.0 0.0 0.00 0.00 0.00 31 1011.8
20260903002010 79 185 0.0 2.0 0.00 0.00 0.00 31 1011.8
20260903001510 79 187 0.0 3.0 0.00 0.00 0.00 30 1011.8
20260903001010 79 186 0.0 3.0 0.00 0.00 0.00 29 1011.8
20260903000508 80 201 0.0 1.0 0.00 0.00 0.00 28 1011.7
20260903000008 80 201 0.0 2.0 0.00 0.00 0.00 28 1011.7
20260902235505 80 118 0.0 2.0 0.00 0.00 0.00 29 1011.9
20260902235004 80 118 0.0 2.0 0.00 0.00 0.00 28 1011.8
20260902234503 81 120 0.0 2.0 0.00 0.00 0.00 28 1011.7
20260902233957 81 121 0.0 6.0 0.00 0.00 0.00 28 1011.8
20260902233446 82 121 0.0 6.0 0.00 0.00 0.00 28 1012.0
20260902232935 83 111 0.0 4.0 0.00 0.00 0.00 26 1011.9
20260902232435 83 112 0.0 4.0 0.00 0.00 0.00 25 1012.0
20260902232155 83 340 0.0 4.0 0.00 0.00 0.00 23 1012.1
20260902231653 84 340 0.0 5.0 0.00 0.00 0.00 24 1012.1
20260902230930 84 49 0.0 5.0 0.00 0.00 0.00 23 1012.1
20260902230431 84 300 0.0 4.0 0.00 0.00 0.00 18 1012.2
20260902225931 84 254 0.0 4.0 0.00 0.00 0.00 18 1012.2
20260902225431 85 240 0.0 4.0 0.00 0.00 0.00 18 1012.3
20260902224656 85 228 0.0 4.0 0.00 0.00 0.00 17 1012.3
20260902223931 85 62 0.0 6.0 0.00 0.00 0.00 17 1012.3
20260902223431 85 279 0.0 6.0 0.00 0.00 0.00 17 1012.5
20260902222932 85 290 0.0 5.0 0.00 0.00 0.00 18 1012.6
20260902222431 85 132 0.0 5.0 0.00 0.00 0.00 19 1012.6
20260902221930 85 276 0.0 2.0 0.00 0.00 0.00 19 1012.7
20260902221651 85 312 0.0 1.0 0.00 0.00 0.00 20 1012.8
20260902220930 85 312 0.0 2.0 0.00 0.00 0.00 19 1012.8
20260902220443 85 310 0.0 2.0 0.00 0.00 0.00 18 1012.9
20260902215930 85 277 0.0 2.0 0.00 0.00 0.00 19 1013.0
20260902215431 85 273 1.0 7.0 0.00 0.00 0.00 20 1013.0
20260902214930 85 273 1.0 7.0 0.00 0.00 0.00 20 1013.1
20260902214430 85 182 0.0 5.0 0.00 0.00 0.00 19 1013.2
20260902213930 85 55 0.0 5.0 0.00 0.00 0.00 19 1013.2
20260902213430 85 257 0.0 7.0 0.00 0.00 0.00 20 1013.2
20260902212931 85 127 0.0 7.0 0.00 0.00 0.00 19 1013.1
20260902212430 85 112 0.0 4.0 0.00 0.00 0.00 19 1013.2
20260902211931 84 168 0.0 9.0 0.00 0.00 0.00 20 1013.3
20260902211431 84 190 0.0 9.0 0.00 0.00 0.00 21 1013.3
20260902210931 84 99 0.0 5.0 0.00 0.00 0.00 20 1013.4
20260902210430 85 101 0.0 5.0 0.00 0.00 0.00 19 1013.4
20260902205930 85 132 0.0 5.0 0.00 0.00 0.00 19 1013.5
20260902205430 85 59 0.0 3.0 0.00 0.00 0.00 20 1013.5
20260902204931 86 273 0.0 7.0 0.00 0.00 0.00 20 1013.5
20260902204431 85 267 0.0 7.0 0.00 0.00 0.00 20 1013.5
20260902203931 86 75 0.0 4.0 0.00 0.00 0.00 20 1013.5
20260902203652 86 52 0.0 4.0 0.00 0.00 0.00 19 1013.5
20260902202931 86 279 0.0 2.0 0.00 0.00 0.00 19 1013.6
20260902202430 85 272 0.0 6.0 0.00 0.00 0.00 20 1013.6
20260902201930 85 178 0.0 6.0 0.00 0.00 0.00 20 1013.6
20260902201652 85 303 0.0 4.0 0.00 0.00 0.00 19 1013.7
20260902200930 85 76 0.0 4.0 0.00 0.00 0.00 18 1013.8
20260902200430 85 75 0.0 4.0 0.00 0.00 0.00 22 1013.7
20260902195931 84 82 0.0 2.0 0.00 0.00 0.00 23 1013.7
20260902195430 84 83 0.0 1.0 0.00 0.00 0.00 24 1013.8
20260902194930 84 83 0.0 2.0 0.00 0.00 0.00 25 1013.8
20260902194431 84 84 0.0 2.0 0.00 0.00 0.00 25 1013.9
20260902193932 84 91 0.0 2.0 0.00 0.00 0.00 24 1013.9
20260902193431 83 212 0.0 5.0 0.00 0.00 0.00 24 1014.0
20260902192930 83 193 0.0 5.0 0.00 0.00 0.00 26 1014.1
20260902192430 82 160 0.0 4.0 0.00 0.00 0.00 26 1014.0
20260902191930 82 103 0.0 5.0 0.00 0.00 0.00 27 1014.0
20260902191430 82 93 0.0 5.0 0.00 0.00 0.00 27 1014.0
20260902190930 82 82 0.0 5.0 0.00 0.00 0.00 28 1014.0
20260902190407 83 101 0.0 5.0 0.00 0.00 0.00 28 1014.1
20260902185907 83 107 0.0 5.0 0.00 0.00 0.00 29 1014.1
20260902185640 83 78 0.0 4.0 0.00 0.00 0.00 30 1014.2
20260902185132 82 267 0.0 4.0 0.00 0.00 0.00 31 1014.2
20260902184402 82 97 0.0 5.0 0.00 0.00 0.00 31 1014.2
20260902184122 82 103 0.0 5.0 0.00 0.00 0.00 32 1014.1
20260902182904 82 65 0.0 1.0 0.00 0.00 0.00 32 1014.3
20260902182404 82 66 0.0 1.0 0.00 0.00 0.00 36 1014.2
20260902181904 81 66 0.0 3.0 0.00 0.00 0.00 35 1014.2
20260902181403 80 54 0.0 5.0 0.00 0.00 0.00 39 1014.1
20260902180904 80 9 0.0 5.0 0.00 0.00 0.00 39 1014.2
20260902180404 79 11 1.0 5.0 0.00 0.00 0.00 41 1014.0
20260902175904 78 28 0.0 4.0 0.00 0.00 0.00 42 1014.0
20260902175403 77 9 1.0 6.0 0.00 0.00 0.00 45 1014.0
20260902174902 76 5 2.0 7.0 0.00 0.00 0.00 45 1013.9
20260902174622 76 334 1.0 7.0 0.00 0.00 0.00 45 1013.9
20260902173904 77 51 0.0 5.0 0.00 0.00 0.00 46 1014.0
20260902173625 77 18 1.0 7.0 0.00 0.00 0.00 47 1014.0
20260902172904 76 5 1.0 7.0 0.00 0.00 0.00 48 1013.9
20260902172641 76 292 0.0 8.0 0.00 0.00 0.00 49 1013.9
20260902171902 76 355 0.0 8.0 0.00 0.00 0.00 49 1013.9
20260902171622 76 5 0.0 7.0 0.00 0.00 0.00 49 1013.9
20260902170904 75 13 0.0 7.0 0.00 0.00 0.00 51 1013.9
20260902170416 74 13 1.0 7.0 0.00 0.00 0.00 53 1013.9
20260902165903 73 13 1.0 6.0 0.00 0.00 0.00 53 1013.7
20260902165625 73 349 1.0 6.0 0.00 0.00 0.00 53 1013.6
20260902164902 73 5 1.0 6.0 0.00 0.00 0.00 53 1013.6
20260902164625 73 15 0.0 5.0 0.00 0.00 0.00 53 1013.6
20260902163916 74 14 0.0 5.0 0.00 0.00 0.00 53 1013.6
20260902163403 73 0 0.0 4.0 0.00 0.00 0.00 54 1013.5
20260902162902 73 0 0.0 2.0 0.00 0.00 0.00 56 1013.5
20260902162403 73 0 0.0 2.0 0.00 0.00 0.00 56 1013.5
20260902161903 73 355 0.0 2.0 0.00 0.00 0.00 55 1013.5
20260902161403 72 355 0.0 1.0 0.00 0.00 0.00 57 1013.7
20260902160831 71 355 0.0 5.0 0.00 0.00 0.00 59 1013.6
20260902160332 71 350 0.0 6.0 0.00 0.00 0.00 59 1013.5
20260902155831 71 350 0.0 6.0 0.00 0.00 0.00 58 1013.5
20260902155332 71 304 0.0 0.0 0.00 0.00 0.00 59 1013.6
20260902155049 70 304 0.0 0.0 0.00 0.00 0.00 62 1013.6
20260902154330 69 304 0.0 1.0 0.00 0.00 0.00 63 1013.5
20260902153829 69 304 0.0 1.0 0.00 0.00 0.00 64 1013.4
20260902153330 68 317 0.0 0.0 0.00 0.00 0.00 65 1013.3
20260902153117 67 317 0.0 1.0 0.00 0.00 0.00 69 1013.2
20260902152331 67 317 0.0 1.0 0.00 0.00 0.00 73 1013.2
20260902151830 66 317 0.0 0.0 0.00 0.00 0.00 76 1013.2
20260902151547 65 317 0.0 0.0 0.00 0.00 0.00 79 1013.1
20260902151454 65 317 0.0 0.0 0.00 0.00 0.00 79 1013.1
20260902150832 64 317 0.0 0.0 0.00 0.00 0.00 81 1013.1
20260902150331 64 317 0.0 0.0 0.00 0.00 0.00 83 1013.2
20260902145832 63 317 0.0 0.0 0.00 0.00 0.00 86 1013.0
20260902145332 62 317 0.0 0.0 0.00 0.00 0.00 87 1012.9
20260902144832 62 317 0.0 0.0 0.00 0.00 0.00 88 1012.9
20260902144552 61 317 0.0 0.0 0.00 0.00 0.00 88 1012.9
20260902143829 61 317 0.0 0.0 0.00 0.00 0.00 88 1012.8
20260902143331 61 317 0.0 0.0 0.00 0.00 0.00 88 1012.7
20260902142831 60 317 0.0 0.0 0.00 0.00 0.00 89 1012.8
20260902142331 59 317 0.0 0.0 0.00 0.00 0.00 88 1012.7
20260902141545 58 317 0.0 0.0 0.00 0.00 0.00 88 1012.7
20260902140808 58 317 0.0 0.0 0.00 0.00 0.00 88 1012.6
20260902140305 58 317 0.0 0.0 0.00 0.00 0.00 88 1012.6
20260902135803 58 317 0.0 0.0 0.00 0.00 0.00 88 1012.3
20260902135306 58 317 0.0 0.0 0.00 0.00 0.00 88 1012.2
20260902134806 58 317 0.0 0.0 0.00 0.00 0.00 88 1012.0
20260902134303 58 317 0.0 0.0 0.00 0.00 0.00 88 1012.0
20260902134020 58 317 0.0 0.0 0.00 0.00 0.00 88 1011.9
20260902133302 58 317 0.0 0.0 0.00 0.00 0.00 87 1012.0
20260902132801 58 317 0.0 0.0 0.00 0.00 0.00 87 1012.0
20260902132530 58 317 0.0 0.0 0.00 0.00 0.00 87 1012.0
20260902131802 58 317 0.0 0.0 0.00 0.00 0.00 87 1012.0
20260902131300 58 317 0.0 0.0 0.00 0.00 0.00 87 1011.9
20260902130802 58 317 0.0 0.0 0.00 0.00 0.00 87 1011.9
20260902130522 58 317 0.0 0.0 0.00 0.00 0.00 87 1011.9
20260902125801 58 317 0.0 0.0 0.00 0.00 0.00 87 1011.9
20260902125305 58 317 0.0 0.0 0.00 0.00 0.00 86 1011.9
20260902124801 58 317 0.0 0.0 0.00 0.00 0.00 86 1011.9
20260902124302 59 317 0.0 0.0 0.00 0.00 0.00 86 1011.9
20260902123801 59 317 0.0 0.0 0.00 0.00 0.00 86 1011.9
20260902122803 59 317 0.0 0.0 0.00 0.00 0.00 86 1011.9
20260902122305 59 317 0.0 0.0 0.00 0.00 0.00 86 1011.9
20260902121801 59 317 0.0 0.0 0.00 0.00 0.00 86 1012.0
20260902121303 59 317 0.0 0.0 0.00 0.00 0.00 85 1012.0
20260902120802 59 317 0.0 0.0 0.00 0.00 0.00 85 1012.0
20260902120302 59 317 0.0 0.0 0.00 0.00 0.00 85 1012.0
20260902115801 59 317 0.0 0.0 0.00 0.00 0.00 85 1011.9
20260902115306 59 317 0.0 0.0 0.00 0.00 0.00 85 1012.0
20260902114802 59 317 0.0 0.0 0.00 0.00 0.00 85 1012.0
20260902114520 59 317 0.0 0.0 0.00 0.00 0.00 85 1012.0
20260902113802 59 317 0.0 0.0 0.00 0.00 0.00 85 1012.0
20260902112802 59 317 0.0 0.0 0.00 0.00 0.00 84 1011.9
20260902112305 59 317 0.0 0.0 0.00 0.00 0.00 83 1011.9
20260902111801 59 317 0.0 0.0 0.00 0.00 0.00 83 1011.8
20260902111541 59 317 0.0 0.0 0.00 0.00 0.00 82 1011.8
20260902110800 59 317 0.0 0.0 0.00 0.00 0.00 81 1011.7
20260902110300 59 317 0.0 0.0 0.00 0.00 0.00 81 1011.8
20260902110019 59 317 0.0 0.0 0.00 0.00 0.00 81 1011.7
20260902105526 59 317 0.0 0.0 0.00 0.00 0.00 81 1011.7
20260902105029 59 317 0.0 0.0 0.00 0.00 0.00 80 1011.5
20260902104302 59 317 0.0 0.0 0.00 0.00 0.00 79 1011.4
20260902103801 58 317 0.0 0.0 0.00 0.00 0.00 78 1011.8
20260902103301 58 317 0.0 0.0 0.00 0.00 0.00 76 1011.5
20260902102803 58 317 0.0 0.0 0.00 0.00 0.00 75 1011.7
20260902102307 58 317 0.0 0.0 0.00 0.00 0.00 75 1011.7
20260902102030 58 317 0.0 0.0 0.00 0.00 0.00 74 1011.7
20260902101301 58 317 0.0 0.0 0.00 0.00 0.00 74 1011.7
20260902100800 58 317 0.0 0.0 0.00 0.00 0.00 74 1011.7
20260902100234 58 317 0.0 0.0 0.00 0.00 0.00 73 1011.5
20260902095730 58 317 0.0 0.0 0.00 0.00 0.00 73 1011.4
20260902095229 58 317 0.0 0.0 0.00 0.00 0.00 72 1011.5
20260902094729 59 317 0.0 0.0 0.00 0.00 0.00 72 1011.5
20260902094453 59 317 0.0 0.0 0.00 0.00 0.00 72 1011.5
20260902093729 59 317 0.0 0.0 0.00 0.00 0.00 72 1011.5
20260902093451 59 317 0.0 0.0 0.00 0.00 0.00 71 1011.5
20260902092728 59 317 0.0 0.0 0.00 0.00 0.00 71 1011.7
20260902092231 59 317 0.0 0.0 0.00 0.00 0.00 71 1011.7
20260902091729 59 317 0.0 0.0 0.00 0.00 0.00 70 1011.8
20260902091229 60 317 0.0 0.0 0.00 0.00 0.00 69 1011.8
20260902090953 60 317 0.0 0.0 0.00 0.00 0.00 69 1011.8
20260902085951 60 317 0.0 0.0 0.00 0.00 0.00 68 1011.8
20260902085231 60 317 0.0 0.0 0.00 0.00 0.00 68 1011.8
20260902084730 60 317 0.0 0.0 0.00 0.00 0.00 68 1011.9
20260902084229 60 317 0.0 0.0 0.00 0.00 0.00 67 1011.8
20260902083725 60 317 0.0 0.0 0.00 0.00 0.00 68 1011.8
20260902083215 61 317 0.0 0.0 0.00 0.00 0.00 68 1011.8
20260902082705 61 317 0.0 0.0 0.00 0.00 0.00 67 1011.8
20260902082203 61 317 0.0 0.0 0.00 0.00 0.00 67 1011.8
20260902081703 61 317 0.0 0.0 0.00 0.00 0.00 66 1011.7
20260902081203 61 317 0.0 0.0 0.00 0.00 0.00 66 1011.7
20260902080715 61 317 0.0 0.0 0.00 0.00 0.00 65 1011.8
20260902075701 62 317 0.0 0.0 0.00 0.00 0.00 64 1011.8
20260902075202 62 317 0.0 0.0 0.00 0.00 0.00 64 1011.8
20260902074703 61 317 0.0 0.0 0.00 0.00 0.00 64 1011.7
20260902074201 61 317 0.0 0.0 0.00 0.00 0.00 64 1011.7
20260902073703 61 317 0.0 0.0 0.00 0.00 0.00 65 1011.5
20260902073202 61 317 0.0 0.0 0.00 0.00 0.00 66 1011.7
20260902072702 62 317 0.0 0.0 0.00 0.00 0.00 67 1011.7
20260902072200 62 317 0.0 0.0 0.00 0.00 0.00 67 1011.5
20260902071920 62 317 0.0 0.0 0.00 0.00 0.00 67 1011.4
20260902071202 62 317 0.0 0.0 0.00 0.00 0.00 67 1011.4
20260902070702 62 317 0.0 0.0 0.00 0.00 0.00 66 1011.7
20260902070202 62 317 0.0 0.0 0.00 0.00 0.00 65 1011.4
20260902065701 62 317 0.0 0.0 0.00 0.00 0.00 65 1011.3
20260902065201 62 317 0.0 0.0 0.00 0.00 0.00 64 1011.3
20260902064202 63 317 0.0 0.0 0.00 0.00 0.00 64 1011.3
20260902063702 63 317 0.0 0.0 0.00 0.00 0.00 64 1011.3
20260902063202 63 317 0.0 0.0 0.00 0.00 0.00 64 1011.3
20260902062701 63 317 0.0 0.0 0.00 0.00 0.00 65 1011.3
20260902062420 62 317 0.0 0.0 0.00 0.00 0.00 65 1011.2
20260902061921 62 317 0.0 0.0 0.00 0.00 0.00 64 1011.2
20260902061202 62 317 0.0 0.0 0.00 0.00 0.00 65 1011.1
20260902060702 62 317 0.0 0.0 0.00 0.00 0.00 65 1011.1
20260902060200 62 317 0.0 0.0 0.00 0.00 0.00 64 1011.1
20260902055702 62 317 0.0 0.0 0.00 0.00 0.00 64 1011.3
20260902055204 63 317 0.0 0.0 0.00 0.00 0.00 64 1011.3
20260902054702 63 317 0.0 0.0 0.00 0.00 0.00 63 1011.3
20260902054202 63 317 0.0 0.0 0.00 0.00 0.00 63 1011.3
20260902053703 63 317 0.0 0.0 0.00 0.00 0.00 64 1011.5
20260902053201 63 317 0.0 0.0 0.00 0.00 0.00 64 1011.5
20260902052702 63 317 0.0 0.0 0.00 0.00 0.00 63 1011.5
20260902052431 63 317 0.0 0.0 0.00 0.00 0.00 63 1011.5
20260902051703 63 317 0.0 0.0 0.00 0.00 0.00 64 1011.5
20260902051202 63 317 0.0 0.0 0.00 0.00 0.00 63 1011.5
20260902050701 63 317 0.0 0.0 0.00 0.00 0.00 63 1011.5
20260902050203 63 317 0.0 0.0 0.00 0.00 0.00 62 1011.4
20260902045700 64 317 0.0 0.0 0.00 0.00 0.00 61 1011.7
20260902044702 64 317 0.0 0.0 0.00 0.00 0.00 59 1011.7
20260902044203 64 317 0.0 0.0 0.00 0.00 0.00 59 1011.7
20260902043701 64 317 0.0 0.0 0.00 0.00 0.00 59 1011.5
20260902043428 65 317 0.0 0.0 0.00 0.00 0.00 59 1011.4
20260902042701 65 317 0.0 0.0 0.00 0.00 0.00 58 1011.4
20260902042201 65 317 0.0 0.0 0.00 0.00 0.00 56 1011.4
20260902041654 65 317 0.0 0.0 0.00 0.00 0.00 55 1011.3
20260902041132 65 317 0.0 0.0 0.00 0.00 0.00 54 1011.2
20260902040631 65 317 0.0 0.0 0.00 0.00 0.00 53 1011.2
20260902040131 65 317 0.0 0.0 0.00 0.00 0.00 52 1011.1
20260902035630 65 317 0.0 0.0 0.00 0.00 0.00 50 1011.3
20260902035118 65 317 0.0 0.0 0.00 0.00 0.00 48 1011.2
20260902034604 66 317 0.0 0.0 0.00 0.00 0.00 48 1011.2
20260902034104 66 317 0.0 0.0 0.00 0.00 0.00 47 1011.0
20260902033103 66 317 0.0 0.0 0.00 0.00 0.00 44 1010.9
20260902032603 67 317 0.0 0.0 0.00 0.00 0.00 44 1010.8
20260902032102 67 317 0.0 0.0 0.00 0.00 0.00 43 1010.8
20260902031602 67 317 0.0 0.0 0.00 0.00 0.00 42 1010.9
20260902031329 68 317 0.0 0.0 0.00 0.00 0.00 42 1010.8
20260902030604 68 317 0.0 0.0 0.00 0.00 0.00 41 1010.9
20260902030107 68 317 0.0 0.0 0.00 0.00 0.00 41 1010.8
20260902025603 69 317 0.0 0.0 0.00 0.00 0.00 38 1011.1
20260902025102 69 317 0.0 0.0 0.00 0.00 0.00 36 1011.0
20260902024602 70 317 0.0 0.0 0.00 0.00 0.00 35 1011.0
20260902024102 70 317 0.0 0.0 0.00 0.00 0.00 34 1010.9
20260902023603 70 317 0.0 0.0 0.00 0.00 0.00 33 1010.8
20260902023104 71 317 0.0 0.0 0.00 0.00 0.00 33 1010.8
20260902022604 71 317 0.0 0.0 0.00 0.00 0.00 34 1010.8
20260902022103 71 317 0.0 0.0 0.00 0.00 0.00 33 1010.7
20260902021602 72 317 0.0 0.0 0.00 0.00 0.00 32 1010.8
20260902021335 73 317 0.0 0.0 0.00 0.00 0.00 33 1010.8
20260902020616 73 317 0.0 0.0 0.00 0.00 0.00 33 1010.9